Вернуться в каталог

SL-8 DEB

АктивенLEO
NORAD 21156·DEBRIS·🇷🇺 Russia

Запущен Feb 12, 1991 с Plesetsk Cosmodrome

Loading…

Ближайшие Пролёты (ближайшие 24 часа)

TLE

СвежийSource: Space-Track

Эпоха: Sep 14, 2026, 15:49 UTC

1 21156U 91009T   26257.65931927 -.00000026  00000-0 -84463-4 0  9997
2 21156  73.9111 229.6046 0146622 169.5145   4.1500 12.33875120600301

Отслеживайте SL-8 DEB в реальном времени с AllMySat

Download on the App Store